Annapolis Naval Academy, MD

12:03 PM EDT on May 24, 2017 (GMT -0400)
Annapolis Naval Academy

Weather History for KNAK - March, 2013

Change the Weather History Date:

Tuesday, March 19, 2013

  Actual Average (KBWI) Record (KBWI)
Temperature  
Mean Temperature 46 °F -  
Max Temperature 55 °F 54 °F 78 °F (1918)
Min Temperature 37 °F 34 °F 12 °F (1876)
Degree Days  
Heating Degree Days 20    
Moisture  
Dew Point 35 °F    
Average Humidity 81    
Maximum Humidity 100    
Minimum Humidity 18    
Precipitation  
Precipitation 0.01 in - - ()
Sea Level Pressure  
Sea Level Pressure 29.80 in    
Wind  
Wind Speed 5 mph (WNW)    
Max Wind Speed 15 mph    
Max Gust Speed 26 mph    
Visibility 6 miles    
Events Rain    
Averages and records for this station are not official NWS values.
T = Trace of Precipitation, MM = Missing Value Source: NWS Daily Summary

Daily Weather History Graph

Daily Weather History Graph

Search for Another Location

Airport or City:

Trip Planner

Search our weather history database for the weather conditions in past years. The results will help you decide how hot, cold, wet, or windy it might be!

Date:

Astronomy

Mar. 19, 2013 Rise Set
Actual Time 7:10 AM EDT 7:17 PM EDT
Civil Twilight 6:44 AM EDT 7:43 PM EDT
Nautical Twilight 6:12 AM EDT 8:14 PM EDT
Astronomical Twilight 5:41 AM EDT 8:46 PM EDT
Moon 12:01 PM EDT (3/19) 1:59 AM EDT (3/19)
Length of Visible Light 12h 59m
Length of Day
12h 06m
Waxing Crescent, 49% of the Moon is Illuminated
Mar 19
Waxing Crescent
Mar 19
First Quarter
Mar 27
Full
Apr 3
Last Quarter
Apr 10
New

Hourly Weather History & Observations

Time (EDT) Temp. Windchill Dew Point Humidity Pressure Visibility Wind Dir Wind Speed Gust Speed Precip Events Conditions
12:54 AM 39.0 °F 33.4 °F 39.0 °F 100% 29.87 in 2.5 mi NNW 8.1 mph - 0.00 in   Overcast
1:54 AM 39.0 °F 35.7 °F 39.0 °F 100% 29.85 in 2.5 mi NNW 4.6 mph - 0.00 in Rain Light Rain
2:23 AM 39.0 °F - 39.0 °F 100% 29.83 in 3.0 mi Calm Calm - 0.01 in   Overcast
2:32 AM 39.0 °F 36.8 °F 39.0 °F 100% 29.83 in 2.5 mi NW 3.5 mph - 0.01 in Rain Light Rain
2:47 AM 39.0 °F - 39.0 °F 100% 29.82 in 3.0 mi Calm Calm - 0.01 in Rain Light Rain
2:54 AM 39.0 °F - 37.9 °F 96% 29.83 in 3.0 mi Calm Calm - 0.01 in Rain Light Rain
3:10 AM 39.0 °F 36.8 °F 39.0 °F 100% 29.82 in 2.5 mi Variable 3.5 mph - 0.00 in   Overcast
3:30 AM 39.0 °F - 39.0 °F 100% 29.82 in 3.0 mi Calm Calm - 0.00 in   Overcast
3:54 AM 37.9 °F - 37.9 °F 100% 29.81 in 4.0 mi Calm Calm - 0.00 in   Overcast
4:54 AM 39.0 °F - 39.0 °F 100% 29.78 in 3.0 mi Calm Calm - N/A   Overcast
5:27 AM 39.0 °F - 37.9 °F 96% 29.77 in 2.5 mi Calm Calm - N/A   Overcast
5:54 AM 37.9 °F - 37.9 °F 100% 29.78 in 3.0 mi Calm Calm - N/A   Overcast
6:54 AM 39.0 °F 36.8 °F 37.9 °F 96% 29.79 in 3.0 mi West 3.5 mph - N/A   Overcast
7:54 AM 39.0 °F 35.7 °F 37.9 °F 96% 29.80 in 4.0 mi West 4.6 mph - N/A   Overcast
8:02 AM 39.0 °F 34.0 °F 37.9 °F 96% 29.79 in 4.0 mi West 6.9 mph - N/A   Overcast
8:31 AM 39.0 °F 34.0 °F 37.9 °F 96% 29.81 in 5.0 mi WNW 6.9 mph - N/A   Overcast
8:54 AM 39.0 °F 34.8 °F 37.9 °F 96% 29.82 in 7.0 mi WNW 5.8 mph - N/A   Overcast
9:11 AM 39.0 °F 35.7 °F 37.9 °F 96% 29.82 in 8.0 mi WNW 4.6 mph - N/A   Overcast
9:54 AM 39.0 °F 35.7 °F 37.9 °F 96% 29.82 in 8.0 mi WNW 4.6 mph - N/A   Overcast
10:54 AM 41.0 °F 36.4 °F 37.9 °F 89% 29.82 in 9.0 mi NW 6.9 mph - N/A   Partly Cloudy
11:54 AM 46.0 °F 41.4 °F 37.9 °F 73% 29.81 in 10.0 mi NW 9.2 mph - N/A   Clear
12:54 PM 48.9 °F - 37.0 °F 64% 29.77 in 10.0 mi NW 8.1 mph - N/A   Clear
1:54 PM 53.1 °F - 37.9 °F 57% 29.77 in 10.0 mi Variable 5.8 mph - N/A   Mostly Cloudy
2:46 PM 46.9 °F - 41.0 °F 80% 29.74 in 10.0 mi ESE 10.4 mph - N/A   Partly Cloudy
2:54 PM 48.0 °F - 39.0 °F 71% 29.75 in 10.0 mi SE 11.5 mph - N/A   Clear
3:54 PM 46.9 °F - 41.0 °F 80% 29.73 in 10.0 mi SE 15.0 mph - N/A   Partly Cloudy
4:54 PM 46.0 °F 40.2 °F 42.1 °F 86% 29.73 in 9.0 mi SE 12.7 mph - N/A   Overcast
5:54 PM 48.0 °F - 41.0 °F 77% 29.75 in 8.0 mi East 3.5 mph - 0.00 in Rain Light Rain
6:54 PM 48.9 °F - 39.9 °F 71% 29.75 in 10.0 mi Calm Calm - 0.00 in   Clear
7:54 PM 54.0 °F - 15.1 °F 22% 29.80 in 10.0 mi WNW 11.5 mph 18.4 mph N/A   Clear
8:54 PM 52.0 °F - 9.0 °F 18% 29.83 in 10.0 mi WNW 10.4 mph 26.5 mph N/A   Clear
9:54 PM 50.0 °F - 10.9 °F 21% 29.85 in 10.0 mi WNW 12.7 mph 23.0 mph N/A   Clear
10:54 PM 48.0 °F - 14.0 °F 26% 29.88 in 10.0 mi WNW 15.0 mph 19.6 mph N/A   Clear
11:54 PM 44.1 °F 37.7 °F 24.1 °F 45% 29.91 in 10.0 mi NNW 12.7 mph - N/A   Clear